Location: Newark
(45.2500°N, 7.5833°E)
Time: 07:25:41
(UTC+00:00)

Vanguard 3 - Pass Details

Date: 30 January 2020
Orbit: 508 x 3263 km, 33.3° (Epoch: 20 February)

Event Time Altitude Azimuth Distance (km) Brightness Sun altitude
Rises 16:13:00 0° 241° (WSW) 6,549 15.7 2.3°
Reaches altitude 10° 16:17:08 10° 237° (WSW) 5,778 13.9 1.7°
Maximum altitude 16:35:14 54° 168° (SSE) 3,724 10.6 -1.2°
Drops below altitude 10° 16:52:31 10° 98° (E) 5,559 10.9 -4.0°
Sets 16:56:24 0° 94° (E) 6,298 11.1 -4.6°
